Weather Roundup
Issued by NWS Chicago, IL

Home | Current Version | Previous Version | Graphics & Text | Print | Product List | Glossary On
Versions: 1 2 3 4 5 6 7 8 9 10 11 12 13 14 15 16 17 18 19 20 21 22 23 24 25 26 27 28 29 30 31 32 33 34 35 36 37 38 39 40 41 42 43 44 45 46 47 48 49 50
000
NZUS59 KLOT 040821
HRRLOT

CHICAGO AREA WEATHER ROUNDUP
NATIONAL WEATHER SERVICE CHICAGO/ROMEOVILLE IL
300 AM CDT FRI SEP 04 2015

NOTE: "FAIR" INDICATES FEW OR NO CLOUDS BELOW 12,000 FEET WITH NO
SIGNIFICANT WEATHER AND/OR OBSTRUCTIONS TO VISIBILITY.

* THESE STATIONS ARE NOT UNDER NWS QUALITY CONTROL. THEY ALSO MAY NOT
  REPORT WEATHER SUCH AS PRECIPITATION OR FOG.

ILZ005-006-012>014-019>023-040900-
NORTHEAST ILLINOIS

CITY           SKY/WX    TMP DP  RH WIND       PRES   REMARKS
OHARE          PTCLDY    70  67  90 N3        29.97R
MIDWAY         CLEAR     73  66  78 CALM      29.96S
AURORA         CLEAR     69  66  90 NE3       29.97S
LANSING*       CLEAR     70  66  87 CALM      29.96S
JOLIET*        CLEAR     72  68  89 CALM      29.97S
WAUKEGAN       CLOUDY    67  65  93 CALM      29.97R
DUPAGE AIRPORT CLEAR     68  64  87 NE3       29.97S
WHEELING       CLEAR     68  66  93 CALM      29.98S
KANKAKEE*      CLEAR     68  67  96 CALM      29.97S FOG
MORRIS*        CLEAR     69  67  93 E3        29.96S
LEWIS AIRPORT* CLEAR     69  66  92 CALM      29.97S
NORTHERLY IS     N/A     69  66  90 NW2         N/A
$$

WIZ051-052-058>065-066-070>072-040900-
SOUTHEAST WISCONSIN

CITY           SKY/WX    TMP DP  RH WIND       PRES   REMARKS
MILWAUKEE      PTCLDY    68  64  87 NW3       29.97S
KENOSHA*       CLOUDY    66  64  93 W3        29.98R
RACINE*        MOCLDY    67  63  87 CALM      29.99S
BURLINGTON     CLOUDY    65  64  95 CALM      29.99R FOG
WAUKESHA       MOCLDY    64  63  94 CALM      29.99S FOG
WEST BEND      CLEAR     61  59  94 CALM      29.99S FOG
$$

INZ001>003-010>013-019-020-040900-
NORTHWEST INDIANA

CITY           SKY/WX    TMP DP  RH WIND       PRES   REMARKS
GARY*          CLEAR     69  66  89 CALM      29.96S
MICHIGAN CITY* NOT AVBL
RENSSELAER*    NOT AVBL
VALPARAISO     CLEAR     69  66  90 CALM      29.97S
$$

LMZ740>746-040900-
SOUTHERN LAKE MICHIGAN

STATION/POSITION TIME  SKY/WX   TEMP WIND        PRES    VSBY
                                AIR  DIR/SP/G
                 (UTC)          (F)  (DEG/KT/KT) (MB)    (MI)
HARRISON CRIB    0800            68  330/  6/  7   N/A
BURNHAM HARBOR   0800            69  340/  4       N/A
CALUMET HARBOR   0800            70  340/  2/  3   N/A
BURNS HARBOR     0700            72   30/  5/  7 1014.9F
MICHIGAN CITY    0800            71  350/  7/  8   N/A
$$

ABBREVIATIONS USED IN REMARKS
   TC - TEMPERATURE IN CELSIUS
  WCI - WIND CHILL INDEX
   HX - HEAT INDEX
  VSB - VISIBILITY
$$



USA.gov is the U.S. government's official web portal to all federal, state and local government web resources and services.